カタログに戻る

DELTA 4 R/B

LostHEO
NORAD 35492·ROCKET BODY·🇺🇸 United States

打ち上げ Jun 27, 2009 から Cape Canaveral Space Force Station

Loading…

次のパス (今後24時間)

TLE

古いSource: Space-Track

元期: Jul 31, 2026, 06:21 UTC

1 35492U 09033B   26212.26503119  .00000022  00000-0  00000+0 0  9991
2 35492  13.2962  75.2403 5229300 140.8554 297.7772  1.93161434120610

AllMySatでDELTA 4 R/Bをリアルタイム追跡

Download on the App Store